Regional Weather Roundup
Issued by NWS Charleston, WV

Home | Current Version | Previous Version | Graphics & Text | Print | Product List | Glossary On
Versions: 1 2 3 4 5 6 7 8 9 10 11 12 13 14 15 16 17 18 19 20 21 22 23 24 25 26 27
000
ASUS41 KRLX 310310
RWRRLX
West Virginia Regional Weather Roundup
National Weather Service Charleston WV
1100 PM EDT MON MAY 30 2016

Note: "fair" indicates few or no clouds below 12,000 feet with no
significant weather and/or obstructions to visibility.

WVZ003-310400-
Northern Panhandle of West Virginia

CITY           SKY/WX    TMP DP  RH WIND       PRES   REMARKS
WHEELING         N/A     73  56  54 CALM      30.01S
$$

WVZ009-310400-
Northwest West Virginia

CITY           SKY/WX    TMP DP  RH WIND       PRES   REMARKS
PARKERSBURG      N/A     66  62  87 CALM      30.02S
$$

WVZ006-310400-
Western West Virginia

CITY           SKY/WX    TMP DP  RH WIND       PRES   REMARKS
HUNTINGTON       N/A     70  60  70 CALM      30.00R
$$

WVZ015-310400-
West Central West Virginia

CITY           SKY/WX    TMP DP  RH WIND       PRES   REMARKS
CHARLESTON       N/A     69  63  81 CALM      30.00S
$$

WVZ022-031-310400-
North Central West Virginia

CITY           SKY/WX    TMP DP  RH WIND       PRES   REMARKS
CLARKSBURG       N/A     66  65  96 CALM      30.01R
MORGANTOWN       N/A     69  57  65 CALM      30.02S
$$

WVZ025-035-042-045-310400-
Southern West Virginia

CITY           SKY/WX    TMP DP  RH WIND       PRES   REMARKS
BECKLEY          N/A     65  60  84 CALM      30.07S
LOGAN            N/A     73  63  68 CALM      30.03S
BLUEFIELD        N/A     66  56  70 CALM      30.10R
LEWISBURG      MOCLDY    64  60  86 CALM      30.07S
$$

WVZ047-310400-
Northern Mountains of West Virginia

CITY           SKY/WX    TMP DP  RH WIND       PRES   REMARKS
ELKINS           N/A     61  57  87 CALM      30.06S
$$

WVZ052-310400-
Eastern Panhandle of West Virginia

CITY           SKY/WX    TMP DP  RH WIND       PRES   REMARKS
MARTINSBURG      N/A     68  63  84 SW3       29.98R
PETERSBURG       N/A     67  65  95 CALM      30.03S
$$




USA.gov is the U.S. government's official web portal to all federal, state and local government web resources and services.